Weather History for Clemson, SC

Change the Weather History Date:

Tuesday, January 8, 2013

  Actual Average Record
Temperature  
Mean Temperature 44 °F -  
Max Temperature 53 °F 52 °F 72 °F (1939)
Min Temperature 36 °F 30 °F 10 °F (1970)
Degree Days  
Heating Degree Days 20    
Moisture  
Dew Point 33 °F    
Average Humidity 60    
Maximum Humidity 79    
Minimum Humidity 47    
Precipitation  
Precipitation 0.00 in - - ()
Sea Level Pressure  
Sea Level Pressure 30.39 in    
Wind  
Wind Speed 4 mph (NNE)    
Max Wind Speed 6 mph    
Max Gust Speed -    
Visibility 10 miles    
Events      
Averages and records for this station are not official NWS values.
T = Trace of Precipitation, MM = Missing Value Source: NWS Daily Summary

Daily Weather History Graph

Daily Weather History Graph

Search for Another Location

Airport:

Trip Planner

Search our weather history database for the weather conditions in past years. The results will help you decide how hot, cold, wet, or windy it might be!

Date:

Astronomy

Jan. 08, 2013 Rise Set
Actual Time 7:39 AM EST 5:37 PM EST
Civil Twilight 7:11 AM EST 6:05 PM EST
Nautical Twilight 6:40 AM EST 6:36 PM EST
Astronomical Twilight 6:09 AM EST 7:07 PM EST
Moon 4:11 AM EST (1/8) 2:38 PM EST (1/8)
Length of Visible Light 10h 53m
Length of Day
9h 58m
Waning Crescent, 14% of the Moon is Illuminated
Jan 8
Waning Crescent
Jan 11
New
Jan 18
First Quarter
Jan 26
Full
Feb 3
Last Quarter

Hourly Weather History & Observations

Time (EST) Temp. Windchill Dew Point Humidity Pressure Visibility Wind Dir Wind Speed Gust Speed Precip Events Conditions
12:54 AM 37.9 °F 34.4 °F 28.9 °F 70% 30.38 in 10.0 mi NNE 4.6 mph - N/A   Clear
1:54 AM 37.9 °F - 27.0 °F 65% 30.38 in 10.0 mi Calm Calm - N/A   Clear
2:54 AM 39.0 °F 34.8 °F 27.0 °F 62% 30.38 in 10.0 mi North 5.8 mph - N/A   Clear
3:54 AM 37.0 °F 33.3 °F 30.9 °F 79% 30.38 in 10.0 mi North 4.6 mph - N/A   Clear
4:54 AM 36.0 °F 33.3 °F 30.0 °F 79% 30.38 in 10.0 mi NNW 3.5 mph - N/A   Clear
5:54 AM 37.0 °F 32.4 °F 30.9 °F 79% 30.38 in 10.0 mi North 5.8 mph - N/A   Mostly Cloudy
6:54 AM 37.0 °F 34.5 °F 30.9 °F 79% 30.39 in 10.0 mi North 3.5 mph - N/A   Mostly Cloudy
7:54 AM 37.9 °F 34.4 °F 30.0 °F 73% 30.40 in 10.0 mi North 4.6 mph - N/A   Overcast
8:54 AM 39.9 °F 35.8 °F 30.9 °F 70% 30.43 in 10.0 mi NNE 5.8 mph - N/A   Overcast
9:54 AM 43.0 °F 41.3 °F 32.0 °F 65% 30.45 in 10.0 mi NE 3.5 mph - N/A   Overcast
10:54 AM 45.0 °F 43.5 °F 32.0 °F 60% 30.46 in 10.0 mi NE 3.5 mph - N/A   Overcast
11:54 AM 46.9 °F - 32.0 °F 56% 30.44 in 10.0 mi East 3.5 mph - N/A   Overcast
12:54 PM 48.9 °F - 32.0 °F 52% 30.41 in 10.0 mi NNE 3.5 mph - N/A   Overcast
1:54 PM 52.0 °F - 33.1 °F 49% 30.38 in 10.0 mi NE 4.6 mph - N/A   Overcast
2:54 PM 53.1 °F - 34.0 °F 48% 30.37 in 10.0 mi NNE 3.5 mph - N/A   Overcast
3:54 PM 53.1 °F - 34.0 °F 48% 30.37 in 10.0 mi NNE 4.6 mph - N/A   Overcast
4:42 PM 53.6 °F - 33.8 °F 47% 30.36 in 10.0 mi NNE 3.5 mph - N/A   Overcast
4:54 PM 53.1 °F - 34.0 °F 48% 30.37 in 10.0 mi NNE 3.5 mph - N/A   Overcast
5:06 PM 53.6 °F - 33.8 °F 47% 30.36 in 10.0 mi NE 4.6 mph - N/A   Overcast
5:49 PM 51.8 °F - 35.6 °F 54% 30.36 in 10.0 mi Calm Calm - N/A   Mostly Cloudy
5:54 PM 52.0 °F - 35.1 °F 53% 30.37 in 10.0 mi Calm Calm - N/A   Mostly Cloudy
6:54 PM 51.1 °F - 35.1 °F 54% 30.37 in 10.0 mi Calm Calm - N/A   Overcast
7:54 PM 52.0 °F - 35.1 °F 53% 30.40 in 10.0 mi North 3.5 mph - N/A   Overcast
8:54 PM 51.1 °F - 36.0 °F 56% 30.39 in 10.0 mi NE 3.5 mph - N/A   Overcast
9:54 PM 51.1 °F - 36.0 °F 56% 30.40 in 10.0 mi NE 3.5 mph - N/A   Overcast
10:54 PM 51.1 °F - 37.0 °F 59% 30.40 in 10.0 mi NNE 3.5 mph - N/A   Overcast